This is the latest recevied weather packets stored in our database for station/object W1REE. If no packets are shown the sender has not sent any weather packets the latest 10 day(s).
| Time | Temp. | Humidity | Pressure | Rain* | Wind** | Luminosity | Snow |
|---|---|---|---|---|---|---|---|
| 1778198323 | 20° C | 23% | 1015.7 hPa | 0 mm | - | 120 W/m² | - |
| 1778198020 | 20.56° C | 20% | 1015.9 hPa | 0 mm | - | 125 W/m² | - |
| 1778197717 | 21.11° C | 20% | 1015.7 hPa | 0 mm | - | 143 W/m² | - |
| 1778197414 | 21.67° C | 21% | 1015.6 hPa | 0 mm | - | 308 W/m² | - |
| 1778197110 | 22.22° C | 22% | 1015.6 hPa | 0 mm | - | 312 W/m² | - |
| 1778196808 | 21.67° C | 22% | 1015.8 hPa | 0 mm | - | 344 W/m² | - |
| 1778196506 | 21.67° C | 22% | 1015.7 hPa | 0 mm | - | 181 W/m² | - |
| 1778196202 | 20° C | 24% | 1015.8 hPa | 0 mm | - | 432 W/m² | - |
| 1778195899 | 19.44° C | 22% | 1015.8 hPa | 0 mm | - | 201 W/m² | - |
| 1778195596 | 20° C | 22% | 1015.8 hPa | 0 mm | - | 129 W/m² | - |
| 1778195292 | 20° C | 23% | 1015.9 hPa | 0 mm | - | 174 W/m² | - |
| 1778194990 | 20° C | 21% | 1015.8 hPa | 0 mm | - | 208 W/m² | - |
| 1778194690 | 20.56° C | 21% | 1015.8 hPa | 0 mm | - | 157 W/m² | - |
| 1778194386 | 20.56° C | 23% | 1015.8 hPa | 0 mm | - | 153 W/m² | - |
| 1778194082 | 21.11° C | 22% | 1015.9 hPa | 0 mm | - | 283 W/m² | - |
| 1778193779 | 20° C | 23% | 1015.8 hPa | 0 mm | - | 530 W/m² | - |
| 1778193475 | 19.44° C | 24% | 1015.9 hPa | 0 mm | - | 239 W/m² | - |
| 1778193172 | 20° C | 28% | 1015.9 hPa | 0 mm | - | 182 W/m² | - |
| 1778192869 | 20.56° C | 25% | 1016.2 hPa | 0 mm | - | 158 W/m² | - |
| 1778192565 | 20.56° C | 23% | 1016.2 hPa | 0 mm | - | 213 W/m² | - |
| 1778192262 | 19.44° C | 23% | 1016.3 hPa | 0 mm | - | 711 W/m² | - |
| 1778191958 | 19.44° C | 24% | 1016 hPa | 0 mm | - | 155 W/m² | - |
| 1778191655 | 19.44° C | 23% | 1016.3 hPa | 0 mm | - | 219 W/m² | - |
| 1778191353 | 20° C | 22% | 1016.3 hPa | 0 mm | - | 221 W/m² | - |
| 1778191049 | 18.89° C | 23% | 1016.2 hPa | 0 mm | - | 500 W/m² | - |
* Rain latest hour (hover to see other rain measurements)
** Current wind speed in m/s (hover to see current wind gust speed)